When you browse on this site, cookies collect data to enhance your experience and personalize the content and advertising you see.
Visit our Privacy Policy to learn more. By continuing to use the site, you agree to this use of cookies and data.
  • In Deutschland
  • Länderverzeichnis
  • Für 7 Tage
  • Wassertemperatur
  • Satellitenkarten
  • Wetterkarte
  • Widgets
  • user-avatar
    Anmelden

    Stündliche Wetter Tirana

    Heute, 25 April, Donnerstag

    Zeit Temperatur Niederschläge Wind Luftdruck Luftfeuchtigkeit
    00:00 +16°C° 0 mm 1 m/S 758 mmHg 59%
    01:00 +16°C° 0 mm 1 m/S 757 mmHg 59%
    02:00 +16°C° 0 mm 1 m/S 757 mmHg 61%
    03:00 +16°C° 0 mm 1 m/S 757 mmHg 63%
    04:00 +16°C° 0 mm 1 m/S 758 mmHg 65%
    05:00 +18°C° 0 mm 1 m/S 758 mmHg 63%
    06:00 +20°C° 0 mm 1 m/S 758 mmHg 61%
    07:00 +20°C° 0 mm 0 m/S 758 mmHg 59%
    08:00 +23°C° 0 mm 1 m/S 758 mmHg 54%
    09:00 +25°C° 0 mm 1 m/S 758 mmHg 49%
    10:00 +26°C° 0 mm 2 m/S 758 mmHg 44%
    11:00 +26°C° 0 mm 2 m/S 758 mmHg 45%
    12:00 +26°C° 0 mm 3 m/S 757 mmHg 46%
    13:00 +26°C° 0 mm 3 m/S 757 mmHg 47%
    14:00 +25°C° 0 mm 3 m/S 757 mmHg 51%
    15:00 +24°C° 0 mm 3 m/S 757 mmHg 54%
    16:00 +22°C° 0 mm 3 m/S 757 mmHg 58%
    17:00 +21°C° 0 mm 2 m/S 757 mmHg 62%
    18:00 +19°C° 0 mm 2 m/S 757 mmHg 66%
    19:00 +19°C° 0 mm 1 m/S 757 mmHg 70%
    20:00 +18°C° 0 mm 1 m/S 757 mmHg 69%
    21:00 +18°C° 0 mm 1 m/S 757 mmHg 69%
    22:00 +18°C° 0 mm 1 m/S 758 mmHg 69%
    23:00 +18°C° 0 mm 1 m/S 758 mmHg 69%

    Morgen, 26 April, Freitag

    Zeit Temperatur Niederschläge Wind Luftdruck Luftfeuchtigkeit
    00:00 +18°C° 0 mm 1 m/S 757 mmHg 68%
    01:00 +18°C° 0 mm 1 m/S 757 mmHg 68%
    02:00 +18°C° 0 mm 1 m/S 757 mmHg 67%
    03:00 +18°C° 0 mm 1 m/S 757 mmHg 66%
    04:00 +18°C° 0 mm 1 m/S 757 mmHg 65%
    05:00 +19°C° 0 mm 1 m/S 757 mmHg 62%
    06:00 +21°C° 0 mm 1 m/S 756 mmHg 59%
    07:00 +22°C° 0 mm 1 m/S 756 mmHg 56%
    08:00 +24°C° 0 mm 1 m/S 756 mmHg 52%
    09:00 +25°C° 0 mm 1 m/S 756 mmHg 48%
    10:00 +27°C° 0 mm 2 m/S 756 mmHg 43%
    11:00 +27°C° 0 mm 2 m/S 756 mmHg 44%
    12:00 +28°C° 0 mm 3 m/S 755 mmHg 45%
    13:00 +28°C° 0 mm 3 m/S 755 mmHg 46%
    14:00 +27°C° 0 mm 3 m/S 755 mmHg 48%
    15:00 +26°C° 0 mm 3 m/S 754 mmHg 50%
    16:00 +26°C° 0 mm 2 m/S 754 mmHg 52%
    17:00 +24°C° 0 mm 2 m/S 754 mmHg 57%
    18:00 +21°C° 0 mm 2 m/S 754 mmHg 61%
    19:00 +20°C° 0 mm 1 m/S 754 mmHg 66%
    20:00 +19°C° 0 mm 2 m/S 754 mmHg 67%
    21:00 +18°C° 0 mm 2 m/S 754 mmHg 68%
    22:00 +18°C° 0 mm 2 m/S 754 mmHg 69%
    23:00 +18°C° 0 mm 2 m/S 754 mmHg 70%

    übermorgen, 27 April, Samstag

    Zeit Temperatur Niederschläge Wind Luftdruck Luftfeuchtigkeit
    00:00 +18°C° 0 mm 2 m/S 754 mmHg 71%
    01:00 +17°C° 0 mm 2 m/S 754 mmHg 72%
    02:00 +17°C° 0 mm 2 m/S 753 mmHg 73%
    03:00 +17°C° 0 mm 2 m/S 753 mmHg 75%
    04:00 +16°C° 0 mm 1 m/S 753 mmHg 76%
    05:00 +17°C° 0 mm 2 m/S 753 mmHg 74%
    06:00 +18°C° 0 mm 2 m/S 753 mmHg 71%
    07:00 +19°C° 0 mm 2 m/S 753 mmHg 69%
    08:00 +19°C° 0.3 mm 2 m/S 753 mmHg 70%
    09:00 +19°C° 0.3 mm 2 m/S 753 mmHg 71%
    10:00 +20°C° 0.3 mm 1 m/S 753 mmHg 72%
    11:00 +20°C° 0.1 mm 2 m/S 753 mmHg 66%
    12:00 +21°C° 0.1 mm 3 m/S 753 mmHg 59%
    13:00 +23°C° 0.1 mm 4 m/S 753 mmHg 52%
    14:00 +22°C° 0 mm 4 m/S 753 mmHg 55%
    15:00 +21°C° 0 mm 4 m/S 752 mmHg 58%
    16:00 +20°C° 0 mm 4 m/S 752 mmHg 60%
    17:00 +19°C° 0 mm 4 m/S 752 mmHg 70%
    18:00 +17°C° 0 mm 4 m/S 753 mmHg 80%
    19:00 +14°C° 0 mm 3 m/S 753 mmHg 90%
    20:00 +14°C° 0 mm 3 m/S 753 mmHg 90%
    21:00 +14°C° 0 mm 2 m/S 754 mmHg 91%
    22:00 +14°C° 0 mm 2 m/S 754 mmHg 91%
    23:00 +14°C° 0 mm 1 m/S 754 mmHg 91%

    28 April, Sonntag

    Zeit Temperatur Niederschläge Wind Luftdruck Luftfeuchtigkeit
    00:00 +13°C° 0 mm 1 m/S 754 mmHg 91%
    01:00 +13°C° 0 mm 1 m/S 754 mmHg 90%
    02:00 +13°C° 0 mm 1 m/S 754 mmHg 89%
    03:00 +12°C° 0 mm 1 m/S 754 mmHg 88%
    04:00 +12°C° 0 mm 1 m/S 753 mmHg 86%
    05:00 +13°C° 0 mm 1 m/S 753 mmHg 80%
    06:00 +15°C° 0 mm 1 m/S 753 mmHg 73%
    07:00 +15°C° 0 mm 0 m/S 753 mmHg 67%
    08:00 +18°C° 0 mm 1 m/S 753 mmHg 60%
    09:00 +20°C° 0 mm 1 m/S 753 mmHg 53%
    10:00 +21°C° 0 mm 1 m/S 753 mmHg 47%
    11:00 +20°C° 0 mm 2 m/S 753 mmHg 46%
    12:00 +21°C° 0 mm 3 m/S 752 mmHg 45%
    13:00 +21°C° 0 mm 3 m/S 752 mmHg 44%
    14:00 +21°C° 0 mm 3 m/S 752 mmHg 46%
    15:00 +21°C° 0 mm 3 m/S 751 mmHg 48%
    16:00 +20°C° 0 mm 3 m/S 751 mmHg 50%
    17:00 +18°C° 0 mm 2 m/S 751 mmHg 57%
    18:00 +16°C° 0 mm 2 m/S 751 mmHg 64%
    19:00 +15°C° 0 mm 1 m/S 751 mmHg 70%
    20:00 +14°C° 0 mm 2 m/S 752 mmHg 70%
    21:00 +14°C° 0 mm 2 m/S 752 mmHg 70%
    22:00 +14°C° 0 mm 2 m/S 752 mmHg 70%
    23:00 +12°C° 0 mm 3 m/S 752 mmHg 70%

    29 April, Montag

    Zeit Temperatur Niederschläge Wind Luftdruck Luftfeuchtigkeit
    00:00 +12°C° 0 mm 3 m/S 752 mmHg 70%
    01:00 +12°C° 0 mm 3 m/S 752 mmHg 70%
    02:00 +12°C° 0 mm 4 m/S 752 mmHg 70%
    03:00 +12°C° 0 mm 4 m/S 752 mmHg 70%
    04:00 +11°C° 0 mm 4 m/S 751 mmHg 70%
    05:00 +13°C° 0 mm 4 m/S 751 mmHg 68%
    06:00 +14°C° 0 mm 4 m/S 751 mmHg 65%
    07:00 +15°C° 0 mm 4 m/S 751 mmHg 62%
    08:00 +17°C° 0 mm 5 m/S 751 mmHg 58%
    09:00 +19°C° 0 mm 5 m/S 751 mmHg 54%
    10:00 +20°C° 0 mm 5 m/S 751 mmHg 51%
    11:00 +20°C° 0 mm 5 m/S 751 mmHg 50%
    12:00 +21°C° 0 mm 6 m/S 751 mmHg 49%
    13:00 +21°C° 0 mm 6 m/S 751 mmHg 49%
    14:00 +21°C° 0 mm 5 m/S 750 mmHg 49%
    15:00 +20°C° 0 mm 5 m/S 750 mmHg 50%
    16:00 +20°C° 0 mm 4 m/S 750 mmHg 51%
    17:00 +18°C° 0.1 mm 4 m/S 750 mmHg 60%
    18:00 +16°C° 0.1 mm 3 m/S 750 mmHg 69%
    19:00 +13°C° 0.1 mm 3 m/S 750 mmHg 79%
    20:00 +13°C° 0.3 mm 3 m/S 751 mmHg 80%
    21:00 +13°C° 0.3 mm 4 m/S 751 mmHg 81%
    22:00 +12°C° 0.3 mm 4 m/S 751 mmHg 83%
    23:00 +12°C° 0.8 mm 4 m/S 751 mmHg 82%

    30 April, Dienstag

    Zeit Temperatur Niederschläge Wind Luftdruck Luftfeuchtigkeit
    00:00 +12°C° 0.8 mm 4 m/S 751 mmHg 82%
    01:00 +11°C° 0.8 mm 4 m/S 751 mmHg 82%
    02:00 +11°C° 0.8 mm 3 m/S 751 mmHg 84%
    03:00 +11°C° 0.8 mm 3 m/S 751 mmHg 86%
    04:00 +12°C° 0.8 mm 2 m/S 751 mmHg 88%
    05:00 +12°C° 1 mm 3 m/S 751 mmHg 84%
    06:00 +13°C° 1 mm 3 m/S 751 mmHg 81%
    07:00 +14°C° 1 mm 3 m/S 750 mmHg 77%
    08:00 +15°C° 1 mm 4 m/S 751 mmHg 74%
    09:00 +15°C° 1 mm 4 m/S 751 mmHg 70%
    10:00 +16°C° 1 mm 5 m/S 751 mmHg 67%
    11:00 +16°C° 0.4 mm 5 m/S 751 mmHg 66%
    12:00 +17°C° 0.4 mm 5 m/S 751 mmHg 64%
    13:00 +17°C° 0.4 mm 5 m/S 751 mmHg 63%
    14:00 +17°C° 0.1 mm 5 m/S 750 mmHg 64%
    15:00 +17°C° 0.1 mm 4 m/S 750 mmHg 65%
    16:00 +17°C° 0.1 mm 4 m/S 750 mmHg 67%
    17:00 +16°C° 0 mm 3 m/S 751 mmHg 73%
    18:00 +14°C° 0 mm 2 m/S 751 mmHg 80%
    19:00 +13°C° 0 mm 1 m/S 751 mmHg 87%
    20:00 +13°C° 0.1 mm 1 m/S 752 mmHg 88%
    21:00 +12°C° 0.1 mm 1 m/S 752 mmHg 89%
    22:00 +12°C° 0.1 mm 1 m/S 752 mmHg 90%
    23:00 +12°C° 0 mm 1 m/S 752 mmHg 89%
    Mehr zeigen